Regional Weather Roundup
Issued by NWS

Home | Current Version | Previous Version | Graphics & Text | Print | Product List | Glossary On
Versions: 1 2 3 4 5 6 7 8 9 10 11 12 13 14 15 16 17 18 19 20 21 22 23 24 25 26 27 28 29 30 31 32 33 34 35 36 37 38 39 40 41 42 43 44 45 46 47 48 49 50
962
ASUS44 KJAN 240203
RWRMS

MISSISSIPPI HOURLY WEATHER ROUNDUP
NATIONAL WEATHER SERVICE JACKSON MS
900 PM CDT THU OCT 23 2014

NOTE: "FAIR: INDICATES FEW OR NO CLOUDS BELOW 12,000 FEET WITH NO
SIGNIFICANT WEATHER AND/OR OBSTRUCTIONS TO VISIBILITY.

MSZ001>002-007>008-010>013-018>021-025>028-034>036-240300-
NORTHWEST MISSISSIPPI

CITY           SKY/WX    TMP DP  RH WIND       PRES   REMARKS
CLARKSDALE     FAIR      52  48  87 CALM      30.15F
CLEVELAND      FAIR      52  48  88 N8        30.14S
GREENWOOD      MOCLDY    54  50  86 N5        30.13F
GREENVILLE     CLEAR     52  48  86 CALM      30.14R
GRENADA          N/A    N/A N/A N/A MISG        N/A
OLIVE BRANCH   CLEAR     54  48  82 CALM      30.14F
OXFORD         FAIR      52  48  87 CALM      30.16R
TUNICA         MOCLDY    52  46  82 CALM      30.15S
$$

MSZ003>006-009-014>017-022>024-029>033-037>039-240300-
NORTHEAST MISSISSIPPI

CITY           SKY/WX    TMP DP  RH WIND       PRES   REMARKS
COLUMBUS AFB   CLOUDY    54  49  83 NW6       30.11R
CORINTH        FAIR      55  50  82 N5        30.12F
GOLDN TRIANGLE CLOUDY    55  45  67 CALM      30.12R
STARKVILLE     FAIR      54  50  87 CALM      30.12R
TUPELO         CLOUDY    58  48  69 CALM      30.12R
$$

MSZ040-058-240300-
CENTRAL MISSISSIPPI

CITY           SKY/WX    TMP DP  RH WIND       PRES   REMARKS
JACKSON INTL   PTCLDY    53  48  83 NW6       30.12R
JACKSON HAWKNS PTCLDY    55  49  80 NW3       30.12R
MERIDIAN KEY   MOCLDY    55  48  77 CALM      30.11R
MERIDIAN NAS   MOCLDY    56  46  69 VRB5      30.11R
RAYMOND        FAIR      52  46  82 MISG      30.13R
VICKSBURG      CLEAR     51  48  89 N3        30.14R
$$

MSZ059>079-240300-
SOUTH MISSISSIPPI

CITY           SKY/WX    TMP DP  RH WIND       PRES   REMARKS
BROOKHAVEN     FAIR      57  52  82 CALM      30.13R
COLUMBIA         N/A    N/A N/A N/A MISG        N/A
HATTIESBURG    MOCLDY    59  51  75 CALM      30.10R
MCCOMB         PTCLDY    56  49  77 N9        30.11R
NATCHEZ        PTCLDY    54  50  87 N5        30.13S
PINE BELT      MOCLDY    57  46  67 N7        30.11R
$$

MSZ080>082-240300-
COASTAL MISSISSIPPI

CITY           SKY/WX    TMP DP  RH WIND       PRES   REMARKS
BILOXI         CLOUDY    67  51  57 N3        30.06S
PASCAGOULA     CLOUDY    56  52  86 CALM      30.06R
GULFPORT       CLOUDY    61  54  77 CALM      30.07R
$$



USA.gov is the U.S. government's official web portal to all federal, state and local government web resources and services.